Regional Weather Roundup
Issued by NWS

Home | Current Version | Previous Version | Text Only | Print | Product List | Glossary Off
Versions: 1 2 3 4 5 6 7 8 9 10 11 12 13 14 15 16 17 18 19 20 21 22 23 24 25 26 27 28 29 30 31 32 33 34 35 36 37 38 39 40 41 42 43 44 45 46 47 48 49 50

000
ASUS45 KBOU 191107
RWRCO

WEATHER ROUNDUP FOR COLORADO
NATIONAL WEATHER SERVICE DENVER/BOULDER CO
500 AM MDT TUE AUG 19 2014

NOTE: "FAIR" INDICATES FEW OR NO CLOUDS BELOW 12000 FEET WITH NO
SIGNIFICANT WEATHER AND/OR OBSTRUCTIONS TO VISIBILITY.

COZ001>005-013-030-031-191200-
...NORTHWEST COLORADO...

CITY           SKY/WX    TMP DP  RH WIND       PRES   REMARKS
CRAIG          MOCLDY    56  42  59 CALM      30.07R
HAYDEN         NOT AVBL
MEEKER         MOCLDY    54  41  61 CALM      30.10R
MOUNT WERNER   NOT AVBL
STEAMBOAT SPGS MOCLDY    49  41  72 CALM      30.11S
WALDEN         CLEAR     37  32  81 CALM      30.20S
$$

COZ006>008-011-191200-
...WEST CENTRAL VALLEYS...

CITY           SKY/WX    TMP DP  RH WIND       PRES   REMARKS
GRAND JUNCTION CLOUDY    72  44  36 NW6       30.01R
MONTROSE       CLOUDY    72  46  39 S13       30.11R
EAGLE          CLOUDY    54  39  58 E3        30.17S
RIFLE          CLOUDY    63  43  48 SW3       30.07R
DELTA          NOT AVBL
NUCLA          DRIZZLE   68  50  52 E8        30.14F
$$

COZ017>023-064>068-191200-
...SOUTHWEST COLORADO...

CITY           SKY/WX    TMP DP  RH WIND       PRES   REMARKS
DURANGO        MOCLDY    60  49  66 S6        30.16R
CORTEZ         MOCLDY    63  53  70 CALM      30.14R
PAGOSA SPRINGS CLOUDY    58  44  58 NE6       30.24F
TELLURIDE      NOT AVBL
WOLF CREEK PAS NOT AVBL
$$

COZ009-010-012-014-032>034-037-058>063-191200-
...CENTRAL COLORADO...

CITY           SKY/WX    TMP DP  RH WIND       PRES   REMARKS
ASPEN          CLOUDY    57  41  55 E5        30.23R
BUENA VISTA    CLOUDY    52  37  57 NW5       30.24S
COPPER MTN     PTCLDY    54  30  40 S15G23    30.50R
BERTHOUD PASS  FAIR      45  43  93 SW9       30.54S
COTTONWOOD PAS CLOUDY    59  32  36 W6        30.35F
GUNNISON       CLOUDY    54  39  58 CALM      30.26S
KREMMLING      PTCLDY    43  36  75 CALM      30.22R
LEADVILLE      MOCLDY    43  35  73 E9        30.36R
MONARCH PASS   MOCLDY    45  34  65 SW21      30.60S
SALIDA         CLOUDY    61  41  48 NW9       30.27S
SUNLIGHT       CLOUDY    52  37  58 CALM      30.44S
WILKERSON PASS MOCLDY    48  32  53 SW9       30.47S
$$

COZ069>075-191200-
...SAN LUIS VALLEY/SANGRE DE CRISTO MOUNTAINS...

CITY           SKY/WX    TMP DP  RH WIND       PRES   REMARKS
ALAMOSA        MOCLDY    52  43  71 CALM      30.22F
LA VETA PASS   CLOUDY    50  36  57 S10G16    30.37S
SAGUACHE       MOCLDY    50  43  76 N6        30.26R
$$

COZ035-036-038>040-191200-
...NORTHERN COLORADO FRONT RANGE...

CITY           SKY/WX    TMP DP  RH WIND       PRES   REMARKS
DENVER INTL AP MOCLDY    56  47  71 S5        30.01F
DMNS CITY PARK   N/A     60  46  60 S5        30.00F
AURORA         PTCLDY    59  46  62 S8        30.03F
FRONT RANGE AP MOCLDY    59  50  72 S6        30.02F
ERIE MUNI ARPT MOCLDY    56  50  80 CALM      29.99F
BOULDER MUN AP MOCLDY    59  46  63 S3        30.00F
CENTENNIAL     MOCLDY    59  44  57 SE9       30.04F
BROOMFIELD     MOCLDY    59  46  63 SW5       30.03S
FORT COLLINS   PTCLDY    55  50  82 N6        30.00F
LONGMONT       PTCLDY    57  50  76 CALM      30.00F
$$

COZ041-046-047-076>085-087-088-191200-
...PIKES PEAK/PALMER DIVIDE AND SOUTHERN FOOTHILLS...

CITY           SKY/WX    TMP DP  RH WIND       PRES   REMARKS
COLO. SPRINGS  CLOUDY    59  49  69 N6        30.07F
A. F. ACADEMY  CLOUDY    53  46  77 N10       30.10F
ELLICOTT       CLOUDY    58  49  72 NE8       30.05F
FALCON         CLOUDY    57  48  73 NW7       30.12F
FORT CARSON    CLOUDY    60  47  62 NW8       30.04F
LIMON          CLOUDY    56  51  84 CALM      30.03F
MONUMENT HILL  CLOUDY    54  45  71 S8        30.12S
TRINIDAD       PTCLDY    63  44  50 W13       30.05S
$$

COZ042>045-048>051-090-091-191200-
...NORTHEAST COLORADO...

CITY           SKY/WX    TMP DP  RH WIND       PRES   REMARKS
GREELEY ARPT   PTCLDY    54  45  71 CALM      29.98F
AKRON          PTCLDY    59  55  87 W8        29.97F
BURLINGTON     CLEAR     63  53  70 S7        29.95S
WRAY             N/A     58  53  84 N9        29.94S
STERLING       PTCLDY    59  57  94 CALM      29.94F
HOLYOKE        NOT AVBL
FORT MORGAN    PTCLDY    56  50  81 CALM      29.98R
$$

COZ086-089-092>099-191200-
...SOUTHEAST COLORADO...

CITY           SKY/WX    TMP DP  RH WIND       PRES   REMARKS
PUEBLO         CLOUDY    65  50  58 W8        29.97S
LA JUNTA       MOCLDY    64  51  62 SW9       29.94R
LAMAR          MOCLDY    65  47  52 S3        29.89R
SPRINGFIELD      N/A     66  48  52 S14       29.96R
$$


USA.gov is the U.S. government's official web portal to all federal, state and local government web resources and services.